Flag for Norway Weather past 2 weeks in Drammen, Norway

Now
54 °F

Passing clouds.


Feels Like: 50 °F
Forecast: 46 / 70 °F
Wind: 13 mph from Northeast

Location: Oslo / Fornebu

Current Time: Aug 27, 2014 at 3:26:19 PM

Latest Report: Aug 27, 2014 at 2:50 PM


Visibility: N/A

Pressure: 30.07 "Hg

Humidity: 82%

Dew point: 48 °F

Location of DrammenLocation

Historic Weather in Drammen — Graph

°F

Drammen temperature yesterday

Maximum temperature yesterday: 55 °F (at 4:20 PM)
Minimum temperature yesterday: 52 °F (at 4:20 AM)
Average temperature yesterday: 54 °F

Past Weeks' High & Low Weather Summary

 TemperatureHumidityPressure
High59 °F (Aug 12, 8:20 PM)100% (Aug 16, 4:50 PM)30.07 "Hg (Aug 16, 4:50 PM)
Low52 °F (Aug 16, 3:50 AM)59% (Aug 15, 9:50 AM)29.21 "Hg (Aug 12, 8:20 PM)
Average54 °F81%29.66 "Hg
* Reported Aug 12 1:20 PM — Aug 27 1:50 PM, Drammen, Weather by CustomWeather, © 2014

Note: Actual official high and low records may vary slightly from our data, if they occured in-between our weather recording intervals... More about our weather records

Advertising

Drammen weather history for previous 24 hours

 ConditionsComfort  
Time TempWeatherWind HumidityBarometerVisibility
1:50 PM
Aug 27
54 °FScattered clouds.13 mph82%30.07 "HgN/A
1:20 PM54 °FScattered clouds.14 mph88%30.07 "HgN/A
12:50 PM54 °FPassing clouds.14 mph82%30.07 "HgN/A
12:20 PM54 °FPassing clouds.15 mph82%30.07 "HgN/A
11:50 AM54 °FCool.15 mph88%30.07 "HgN/A
11:20 AM54 °FPassing clouds.15 mph88%30.07 "HgN/A
10:50 AM54 °FPassing clouds.16 mph88%30.07 "HgN/A
10:20 AM54 °FPassing clouds.16 mph88%30.07 "HgN/A
9:50 AM54 °FScattered clouds.15 mph88%30.07 "HgN/A
9:20 AM54 °FScattered clouds.17 mph82%30.07 "HgN/A
8:50 AM54 °FPassing clouds.17 mph82%30.04 "HgN/A
8:20 AM54 °FPassing clouds.17 mph82%30.04 "HgN/A
7:50 AM54 °FScattered clouds.18 mph82%30.04 "HgN/A
7:20 AM54 °FScattered clouds.17 mph88%30.04 "HgN/A
6:50 AM54 °FPassing clouds.17 mph88%30.04 "HgN/A
6:20 AM54 °FPassing clouds.17 mph88%30.04 "HgN/A
5:50 AM54 °FPassing clouds.17 mph88%30.04 "HgN/A
5:20 AM54 °FPassing clouds.17 mph88%30.04 "HgN/A
4:50 AM54 °FPassing clouds.17 mph82%30.04 "HgN/A
4:20 AM54 °FPassing clouds.16 mph88%30.04 "HgN/A
3:50 AM54 °FCool.N/A88%30.04 "HgN/A
3:20 AM54 °FCool.N/A88%30.04 "HgN/A
2:50 AM54 °FCool.N/A88%30.04 "HgN/A
2:20 AM54 °FCool.N/A88%30.04 "HgN/A
1:50 AM54 °FCool.N/A88%30.04 "HgN/A
1:20 AM54 °FCool.N/A88%30.01 "HgN/A
12:50 AM54 °FCool.N/A88%30.01 "HgN/A
12:20 AM54 °FCool.N/A88%30.01 "HgN/A
11:50 PM
Aug 26
54 °FCool.N/A88%30.01 "HgN/A
11:20 PM54 °FCool.N/A88%30.01 "HgN/A
10:50 PM54 °FCool.N/A94%30.01 "HgN/A
10:20 PM54 °FCool.N/A94%30.01 "HgN/A
9:50 PM54 °FCool.22 mph94%30.01 "HgN/A
9:20 PM54 °FCool.22 mph88%29.98 "HgN/A
8:50 PM54 °FPartly sunny.22 mph94%29.98 "HgN/A
8:20 PM55 °FPartly sunny.22 mph88%29.98 "HgN/A
7:50 PM54 °FPartly sunny.21 mph88%29.98 "HgN/A
7:20 PM54 °FPartly sunny.23 mph88%29.98 "HgN/A
6:50 PM55 °FScattered clouds.21 mph82%29.98 "HgN/A
6:20 PM55 °FScattered clouds.21 mph82%29.98 "HgN/A
5:50 PM55 °FScattered clouds.21 mph88%29.98 "HgN/A
5:20 PM55 °FScattered clouds.21 mph82%29.98 "HgN/A
4:50 PM54 °FBroken clouds.18 mph82%29.98 "HgN/A
4:20 PM55 °FPassing clouds.20 mph82%29.98 "HgN/A
3:50 PM54 °FCool.20 mph82%29.98 "HgN/A
3:20 PM54 °FPassing clouds.17 mph82%29.98 "HgN/A
Weather by CustomWeather, © 2014

See weather overviewHow to use our weather pages